星链-4308 (STARLINK-4308 )

导读 | 豆包AI

STARLINK-4308是美国SpaceX公司星链(Starlink)星座中的低轨通信卫星,于2022年7月11日发射升空。作为星链互联网星座的组成部分,它运行于近地轨道,采用平板设计与氪工质霍尔推进器,搭载Ku/Ka波段通信载荷,具备自主避撞能力,旨在为全球提供高速宽带互联网服务,设计使用寿命约5-7年,退役后将主动离轨坠入大气层烧毁。

基本信息
目录编号:
53061
目录名称:
STARLINK-4308
国际标识:
2022-077U
轨道中心:
EARTH
卫星名称:
星链-4308
卫星全名:
星链-4308 (STARLINK-4308 )
卫星状态:
在轨 (已飞行1343 天)
发射日期:
2022-07-11 UTC
国别 :
美国 (US)
星等 :
--
轨道信息
数据来源 国际轨道数据
星历时间: 2026-03-14T19:29:29+0800
15小时前
查看轨道信息
半长轴: 6941.14km
偏心率: 0.0001102
轨道倾角: 97.601°
近地点辐角 185.084°
升交点赤经 254.897°
平近点角 175.037°
近地点: 562.238km
远地点: 563.768km
周期: 95.919分钟
每日圈数: 15.012624
详细信息
固有亮度:
5
最大亮度:
2.5
卫星平台:
Starlink v1.5
覆盖范围:
全球
运营商:
太空探索技术公司
运营商所在国:
美国
制造商(研发单位):
太空探索技术公司
制造商所在国:
美国
使用方式:
暂无
卫星简介
星链(Starlink)计划是由太空探索技术公司(SpaceX)提出的一个巨型低轨卫星互联网星座项目,计划在2019年至2024年间在太空搭建由约1.2万颗卫星组成的“星链”网络,其中1584颗将部署在地球上空550千米处的近地轨道,并从2020年开始工作。该卫星仍在工作。
2D轨道图
3D轨道图
轨道高度分析图
轨道倾角分析图
轨道综合分析图
查看轨道综合分析图